Weather History for Marshalltown, IA

Change the Weather History Date:

Friday, November 30, 2012

  Actual Average Record
Temperature  
Mean Temperature 38 °F 28 °F  
Max Temperature 49 °F 38 °F 60 °F (2003)
Min Temperature 26 °F 19 °F 8 °F (2002)
Degree Days  
Heating Degree Days 27 36  
Month to date heating degree days 761 861  
Since 1 July heating degree days 1391 1496  
Cooling Degree Days 0 0  
Month to date cooling degree days 0 0  
Year to date cooling degree days 1082 728  
Moisture  
Dew Point 31 °F    
Average Humidity 81    
Maximum Humidity 100    
Minimum Humidity 61    
Precipitation  
Precipitation 0.00 in 0.03 in 0.12 in (1998)
Month to date precipitation 1.11 2.20  
Sea Level Pressure  
Sea Level Pressure 30.06 in    
Wind  
Wind Speed 7 mph (East)    
Max Wind Speed 13 mph    
Max Gust Speed 15 mph    
Visibility 5 miles    
Events      
T = Trace of Precipitation, MM = Missing Value Source: NWS Daily Summary

Daily Weather History Graph

Daily Weather History Graph

Search for Another Location

Airport:

Trip Planner

Search our weather history database for the weather conditions in past years. The results will help you decide how hot, cold, wet, or windy it might be!

Date:

Astronomy

Nov. 30, 2012 Rise Set
Actual Time 7:19 AM CST 4:40 PM CST
Civil Twilight 6:48 AM CST 5:12 PM CST
Nautical Twilight 6:13 AM CST 5:46 PM CST
Astronomical Twilight 5:40 AM CST 6:20 PM CST
Moon 6:36 PM CST (11/30) 8:52 AM CST (11/30)
Length of Visible Light 10h 23m
Length of Day
9h 21m
Waning Gibbous, 96% of the Moon is Illuminated
Nov 30
Waning Gibbous
Dec 6
Last Quarter
Dec 13
New
Dec 19
First Quarter
Dec 28
Full

Hourly Weather History & Observations

Time (CST) Temp. Windchill Dew Point Humidity Pressure Visibility Wind Dir Wind Speed Gust Speed Precip Events Conditions
12:53 AM 28.0 °F 20.0 °F 26.1 °F 92% 29.99 in 7.0 mi ESE 8.1 mph - N/A   Clear
1:53 AM 26.1 °F 20.5 °F 26.1 °F 100% 30.00 in 6.0 mi ENE 4.6 mph - N/A   Clear
2:53 AM 27.0 °F 23.0 °F 26.1 °F 96% 30.00 in 6.0 mi East 3.5 mph - N/A   Clear
3:53 AM 27.0 °F - 26.1 °F 96% 30.00 in 6.0 mi Calm Calm - N/A   Clear
4:53 AM 26.1 °F 19.4 °F 25.0 °F 96% 30.01 in 6.0 mi NE 5.8 mph - N/A   Clear
5:53 AM 27.0 °F 20.5 °F 26.1 °F 96% 30.03 in 5.0 mi ENE 5.8 mph - N/A   Clear
6:53 AM 27.0 °F 19.5 °F 26.1 °F 96% 30.04 in 5.0 mi East 6.9 mph - N/A   Clear
7:53 AM 28.9 °F 21.9 °F 27.0 °F 92% 30.05 in 4.0 mi East 6.9 mph - N/A   Clear
8:53 AM 35.1 °F 28.6 °F 32.0 °F 89% 30.07 in 5.0 mi East 8.1 mph - N/A   Clear
9:53 AM 39.0 °F 32.3 °F 34.0 °F 82% 30.09 in 6.0 mi East 10.4 mph - N/A   Haze
10:53 AM 43.0 °F 37.7 °F 35.1 °F 74% 30.09 in 7.0 mi ENE 9.2 mph - N/A   Clear
11:53 AM 46.0 °F 42.5 °F 36.0 °F 68% 30.09 in 7.0 mi ENE 6.9 mph - N/A   Clear
12:53 PM 48.0 °F - 36.0 °F 63% 30.07 in 7.0 mi East 6.9 mph - N/A   Clear
1:53 PM 48.9 °F - 36.0 °F 61% 30.07 in 8.0 mi East 9.2 mph - N/A   Clear
2:53 PM 48.9 °F - 37.0 °F 64% 30.07 in 7.0 mi East 8.1 mph - N/A   Clear
3:53 PM 46.9 °F - 36.0 °F 66% 30.09 in 7.0 mi ENE 6.9 mph - N/A   Clear
4:53 PM 39.0 °F 34.0 °F 33.1 °F 79% 30.10 in 7.0 mi NE 6.9 mph - N/A   Clear
5:53 PM 36.0 °F 29.0 °F 32.0 °F 86% 30.10 in 5.0 mi ENE 9.2 mph - N/A   Clear
6:53 PM 35.1 °F 30.1 °F 32.0 °F 89% 30.12 in 5.0 mi East 5.8 mph - N/A   Clear
7:53 PM 32.0 °F 25.6 °F 30.0 °F 92% 30.11 in 4.0 mi East 6.9 mph - N/A   Clear
8:53 PM 33.1 °F 24.4 °F 30.9 °F 92% 30.08 in 3.0 mi East 11.5 mph - N/A   Clear
9:53 PM 30.9 °F 23.5 °F 30.0 °F 96% 30.09 in 3.0 mi East 8.1 mph - N/A   Clear
10:19 PM 32.0 °F 24.2 °F 30.2 °F 93% 30.05 in 2.5 mi East 9.2 mph - N/A   Clear
10:53 PM 30.9 °F 23.5 °F 30.0 °F 96% 30.09 in 2.5 mi East 8.1 mph - N/A   Clear
11:53 PM 30.9 °F 22.8 °F 30.0 °F 96% 30.06 in 2.0 mi East 9.2 mph - N/A   Clear